DW7738 Weather Reports


time (UTC)temp
F
wind
direction
speed
knots
gust
knots
rain 1hr
in
rain 24hr
in
rain mn
in
humidity
%
barometer
mb
20260505200559 80 205 12.2 20.9 0.00 0.06 0.06 35 1008.8
20260505200106 80 142 10.4 20.9 0.00 0.06 0.06 34 1008.7
20260505195600 81 187 9.6 19.1 0.00 0.06 0.06 33 1008.7
20260505195058 81 211 6.1 20.9 0.00 0.06 0.06 34 1008.9
20260505194607 81 200 8.7 22.6 0.00 0.06 0.06 33 1008.8
20260505194059 81 193 9.6 22.6 0.00 0.06 0.06 32 1008.7
20260505193559 81 254 10.4 23.5 0.00 0.06 0.06 33 1008.8
20260505193103 81 167 6.1 23.5 0.00 0.06 0.06 33 1008.7
20260505192559 81 193 8.7 20.9 0.00 0.06 0.06 32 1008.7
20260505192102 81 211 12.2 22.6 0.00 0.06 0.06 32 1008.7
20260505191557 82 197 9.6 22.6 0.00 0.06 0.06 33 1008.7
20260505191059 82 206 6.1 20.0 0.00 0.06 0.06 34 1008.9
20260505190601 81 143 12.2 22.6 0.00 0.06 0.06 32 1009.0
20260505185559 82 190 13.0 24.3 0.00 0.06 0.06 32 1009.1
20260505185059 82 171 1.7 24.3 0.00 0.06 0.06 33 1009.2
20260505184600 82 210 7.8 25.2 0.00 0.06 0.06 34 1009.2
20260505184059 82 225 10.4 25.2 0.00 0.06 0.06 34 1009.1
20260505183602 82 254 8.7 21.7 0.00 0.06 0.06 34 1009.1
20260505183102 82 205 9.6 21.7 0.00 0.06 0.06 35 1009.2
20260505182559 82 352 6.1 25.2 0.00 0.06 0.06 35 1009.2
20260505182059 82 221 8.7 25.2 0.00 0.06 0.06 33 1009.3
20260505181600 82 168 10.4 22.6 0.00 0.06 0.06 35 1009.3
20260505181059 82 146 8.7 23.5 0.00 0.06 0.06 35 1009.4
20260505180559 82 199 8.7 23.5 0.00 0.06 0.06 35 1009.8
20260505175559 82 198 11.3 21.7 0.00 0.06 0.06 37 1009.6
20260505175059 82 192 7.8 15.6 0.00 0.06 0.06 40 1009.5
20260505174600 82 214 7.0 15.6 0.00 0.06 0.06 39 1009.7
20260505174059 81 173 8.7 15.6 0.00 0.06 0.06 40 1009.5
20260505173558 81 173 4.3 15.6 0.00 0.06 0.06 41 1009.5
20260505173100 81 236 8.7 17.4 0.00 0.06 0.06 39 1009.6
20260505172559 81 222 7.0 17.4 0.00 0.06 0.06 40 1009.7
20260505172058 81 190 6.1 17.4 0.00 0.06 0.06 41 1009.6
20260505171600 81 298 7.8 17.4 0.00 0.06 0.06 41 1009.7
20260505171100 81 190 5.2 13.9 0.00 0.06 0.06 42 1009.9
20260505170600 81 283 6.1 13.9 0.00 0.06 0.06 42 1009.9
20260505165559 80 202 5.2 12.2 0.00 0.06 0.06 42 1010.0
20260505165059 80 288 4.3 12.2 0.00 0.06 0.06 44 1010.1
20260505164630 80 284 2.6 12.2 0.00 0.06 0.06 43 1010.3
20260505164059 80 301 5.2 12.2 0.00 0.06 0.06 43 1010.4
20260505163558 79 242 3.5 11.3 0.00 0.06 0.06 43 1010.4
20260505163058 79 86 2.6 12.2 0.00 0.06 0.06 44 1010.5
20260505162559 79 189 6.1 12.2 0.00 0.06 0.06 46 1010.5
20260505162058 79 209 1.7 17.4 0.00 0.06 0.06 44 1010.6
20260505161601 79 204 5.2 17.4 0.00 0.06 0.06 45 1010.5
20260505161059 79 182 7.0 15.6 0.00 0.06 0.06 45 1010.5
20260505160600 79 146 4.3 13.0 0.00 0.06 0.06 47 1010.6
20260505160109 78 200 1.7 17.4 0.00 0.06 0.06 46 1010.7
20260505153057 77 238 4.3 8.7 0.00 0.06 0.06 49 1011.1
20260505152558 77 229 2.6 8.7 0.00 0.06 0.06 49 1011.3
20260505152058 76 190 2.6 8.7 0.00 0.06 0.06 49 1011.1
20260505151606 76 173 2.6 8.7 0.00 0.06 0.06 50 1011.1
20260505151059 75 224 1.7 8.7 0.00 0.06 0.06 51 1011.1
20260505150559 75 272 0.9 10.4 0.00 0.06 0.06 51 1011.3
20260505140600 71 308 0.9 7.8 0.00 0.06 0.06 59 1011.7
20260505140114 71 204 2.6 7.8 0.00 0.06 0.06 59 1011.9
20260505124605 62 132 1.7 3.5 0.00 0.06 0.06 81 1012.0
20260505124059 61 109 2.6 3.5 0.00 0.06 0.06 82 1012.1
20260505123559 61 132 1.7 3.5 0.00 0.06 0.06 85 1012.1
20260505123100 61 0 0.9 3.5 0.00 0.06 0.06 84 1012.1
20260505122559 60 170 0.0 1.7 0.00 0.06 0.06 86 1012.0
20260505122059 59 0 0.0 1.7 0.00 0.06 0.06 90 1012.0
20260505121600 58 0 0.0 0.9 0.00 0.06 0.06 91 1012.0
20260505121058 57 0 0.0 0.0 0.00 0.06 0.06 91 1012.0
20260505120559 57 0 0.0 1.7 0.00 0.06 0.06 91 1012.0
20260505120113 56 0 0.0 1.7 0.00 0.06 0.06 92 1011.9
20260505115559 56 0 0.0 1.7 0.00 0.06 0.06 93 1012.0
20260505115100 55 182 0.9 1.7 0.00 0.06 0.06 94 1011.9
20260505114601 54 182 0.0 1.7 0.00 0.06 0.06 95 1011.8
20260505114059 54 182 0.9 1.7 0.00 0.06 0.06 95 1011.8
20260505113600 54 182 0.9 2.6 0.00 0.06 0.06 95 1011.9
20260505113058 53 182 0.9 2.6 0.00 0.06 0.06 95 1011.9
20260505112558 53 182 0.9 2.6 0.00 0.06 0.06 95 1011.9
20260505112059 53 182 1.7 2.6 0.00 0.06 0.06 95 1011.9
20260505111601 53 148 0.0 1.7 0.00 0.06 0.06 96 1011.9
20260505111100 52 227 0.0 1.7 0.00 0.06 0.06 96 1011.9
20260505110559 52 227 0.0 1.7 0.00 0.06 0.06 96 1011.9
20260505110108 51 227 0.9 2.6 0.00 0.06 0.06 96 1012.0
20260505102059 51 0 0.0 1.7 0.00 0.06 0.06 95 1011.8
20260505101601 51 207 0.9 1.7 0.00 0.06 0.06 94 1011.6
20260505101059 51 0 0.0 1.7 0.01 0.06 0.06 94 1011.5
20260505100559 51 0 0.0 1.7 0.03 0.06 0.06 94 1011.6
20260505100059 51 207 0.9 1.7 0.04 0.06 0.06 94 1011.6
20260505095559 51 207 0.9 1.7 0.06 0.06 0.06 95 1011.6
20260505095058 51 0 0.0 2.6 0.06 0.06 0.06 94 1011.7
20260505094603 51 207 0.9 2.6 0.06 0.06 0.06 94 1011.6
20260505094059 51 206 1.7 2.6 0.06 0.06 0.06 93 1011.6
20260505093558 51 195 0.0 1.7 0.06 0.06 0.06 93 1011.4
20260505093102 51 0 0.9 1.7 0.06 0.06 0.06 92 1011.8
20260505092602 51 193 1.7 4.3 0.06 0.06 0.06 92 1011.9
20260505092058 51 198 0.0 4.3 0.06 0.06 0.06 92 1011.8
20260505091613 51 197 2.6 4.3 0.06 0.06 0.06 91 1011.6
20260505091058 52 247 0.9 2.6 0.05 0.05 0.05 89 1011.4
20260505090558 52 247 1.7 2.6 0.03 0.03 0.03 87 1011.6
20260505090059 52 178 0.9 1.7 0.00 0.00 0.00 85 1011.2
20260505085558 52 180 0.9 1.7 0.00 0.00 0.00 84 1011.5
20260505085059 52 0 0.0 1.7 0.00 0.00 0.00 85 1011.4
20260505084559 52 0 0.9 1.7 0.00 0.00 0.00 84 1011.4
20260505084100 52 0 0.9 2.6 0.00 0.00 0.00 84 1011.1
20260505083601 53 0 0.0 2.6 0.00 0.00 0.00 83 1011.0
20260505083100 53 186 1.7 2.6 0.00 0.00 0.00 83 1011.0
20260505082559 53 209 0.0 1.7 0.00 0.00 0.00 82 1011.0
20260505082100 53 209 0.0 2.6 0.00 0.00 0.00 83 1010.9
20260505081601 53 0 0.0 2.6 0.00 0.00 0.00 83 1010.9
20260505081100 53 210 1.7 2.6 0.00 0.00 0.00 83 1010.8
20260505080558 53 210 0.0 1.7 0.00 0.00 0.00 83 1010.8
20260505080107 52 210 0.9 2.6 0.00 0.00 0.00 84 1010.9
20260505075558 52 210 0.0 2.6 0.00 0.00 0.00 85 1010.9
20260505075059 52 210 0.9 2.6 0.00 0.00 0.00 84 1010.9
20260505074559 52 210 0.9 1.7 0.00 0.00 0.00 84 1010.9
20260505074059 52 210 0.9 1.7 0.00 0.00 0.00 84 1010.9
20260505073559 52 210 0.0 1.7 0.00 0.00 0.00 85 1010.9
20260505073104 52 0 0.9 1.7 0.00 0.00 0.00 85 1011.0
20260505072559 51 210 0.0 2.6 0.00 0.00 0.00 85 1010.9
20260505072059 51 210 0.9 2.6 0.00 0.00 0.00 86 1010.8
20260505071601 51 209 0.9 2.6 0.00 0.00 0.00 85 1010.9
20260505071100 51 0 0.0 0.0 0.00 0.00 0.00 86 1010.9
20260505070559 51 0 0.0 0.0 0.00 0.00 0.00 86 1010.9
20260505070058 51 0 0.0 0.0 0.00 0.00 0.00 86 1010.9
20260505065559 51 0 0.0 0.0 0.00 0.00 0.00 86 1010.9
20260505065059 51 0 0.0 0.0 0.00 0.00 0.00 85 1010.9
20260505064606 50 0 0.0 0.0 0.00 0.00 0.00 84 1011.0
20260505064059 50 0 0.0 1.7 0.00 0.00 0.00 83 1011.0
20260505063600 51 0 0.0 1.7 0.00 0.00 0.00 83 1011.0
20260505063114 51 237 0.0 1.7 0.00 0.00 0.00 83 1011.0
20260505062559 51 0 0.9 1.7 0.00 0.00 0.00 83 1011.0
20260505062058 51 237 0.0 0.9 0.00 0.00 0.00 82 1011.1
20260505061607 52 0 0.0 0.0 0.00 0.00 0.00 82 1011.0
20260505061059 52 0 0.0 0.0 0.00 0.00 0.00 82 1011.0
20260505060559 52 0 0.0 0.0 0.00 0.00 0.00 82 1011.0
20260505060059 52 0 0.0 0.0 0.00 0.00 0.00 82 1011.0
20260505055559 53 0 0.0 0.9 0.00 0.00 0.00 82 1010.9
20260505055101 53 0 0.0 0.9 0.00 0.00 0.00 82 1010.9
20260505054611 53 0 0.0 1.7 0.00 0.00 0.00 81 1011.0
20260505054103 53 0 0.0 1.7 0.00 0.00 0.00 80 1011.0
20260505053600 53 237 0.9 1.7 0.00 0.00 0.00 80 1011.0
20260505053103 53 0 0.0 1.7 0.00 0.00 0.00 81 1011.0
20260505052559 53 243 0.0 1.7 0.00 0.00 0.00 79 1011.0
20260505052059 53 0 0.0 0.0 0.00 0.00 0.00 77 1010.9
20260505051601 53 0 0.0 1.7 0.00 0.00 0.00 78 1011.0
20260505051059 54 0 0.0 1.7 0.00 0.00 0.00 77 1010.9
20260505050558 54 243 0.0 0.9 0.00 0.00 0.00 78 1011.0
20260505041600 60 173 0.0 1.7 0.00 0.00 0.00 63 1010.9
20260505041101 60 0 0.0 2.6 0.00 0.00 0.00 61 1010.8
20260505040602 60 173 0.0 2.6 0.00 0.00 0.00 62 1010.8
20260505040100 60 175 0.9 2.6 0.00 0.00 0.00 61 1010.8
20260505035559 60 0 0.0 3.5 0.00 0.00 0.00 60 1010.7
20260505035102 60 167 0.0 3.5 0.00 0.00 0.00 60 1010.7
20260505034601 60 213 0.9 2.6 0.00 0.00 0.00 61 1010.8
20260505034104 59 0 0.9 2.6 0.00 0.00 0.00 61 1010.7
20260505033602 59 181 0.9 2.6 0.00 0.00 0.00 64 1010.7
20260505033056 58 0 0.0 1.7 0.00 0.00 0.00 64 1010.7
20260505032559 59 0 0.0 1.7 0.00 0.00 0.00 64 1010.8
20260505032100 59 0 0.0 1.7 0.00 0.00 0.00 65 1010.8
20260505031607 58 159 0.0 1.7 0.00 0.00 0.00 64 1010.8
20260505031059 58 0 0.0 1.7 0.00 0.00 0.00 64 1010.9
20260505030559 57 159 0.0 1.7 0.00 0.00 0.00 66 1010.9
20260505030059 56 0 0.0 0.0 0.00 0.00 0.00 69 1010.9
20260505025559 56 0 0.0 0.0 0.00 0.00 0.00 69 1011.0
20260505025058 56 0 0.0 0.0 0.00 0.00 0.00 70 1010.9
20260505024606 55 0 0.0 0.0 0.00 0.00 0.00 71 1011.0
20260505024059 55 0 0.0 0.0 0.00 0.00 0.00 73 1011.0
20260505023600 55 0 0.0 0.0 0.00 0.00 0.00 73 1011.0
20260505023058 55 0 0.0 0.0 0.00 0.00 0.00 75 1011.1
20260505022559 55 0 0.0 0.0 0.00 0.00 0.00 74 1011.1
20260505022059 55 0 0.0 0.0 0.00 0.00 0.00 74 1011.2
20260505021601 55 0 0.0 0.0 0.00 0.00 0.00 74 1011.2
20260505021058 55 0 0.0 0.0 0.00 0.00 0.00 73 1011.1
20260505020558 55 0 0.0 0.0 0.00 0.00 0.00 73 1011.1
20260505020056 55 0 0.0 0.0 0.00 0.00 0.00 73 1011.2
20260505015559 55 0 0.0 0.0 0.00 0.00 0.00 73 1011.1
20260505015059 56 0 0.0 0.0 0.00 0.00 0.00 71 1011.0
20260505014610 56 0 0.0 1.7 0.00 0.00 0.00 72 1011.1
20260505014100 56 0 0.0 1.7 0.00 0.00 0.00 72 1011.1
20260505013559 56 0 0.0 1.7 0.00 0.00 0.00 72 1011.0
20260505013059 57 0 0.0 0.9 0.00 0.00 0.00 69 1010.9
20260505012600 57 0 0.0 0.0 0.00 0.00 0.00 69 1010.8
20260505012059 57 0 0.0 1.7 0.00 0.00 0.00 68 1010.8
20260505011607 58 0 0.0 1.7 0.00 0.00 0.00 67 1010.8
20260505011100 58 163 0.0 1.7 0.00 0.00 0.00 65 1010.7
20260505010558 59 163 0.0 0.0 0.00 0.00 0.00 65 1010.6
20260505010109 59 0 0.0 0.0 0.00 0.00 0.00 66 1010.6
20260505005600 60 0 0.0 0.0 0.00 0.00 0.00 64 1010.5
20260505005102 61 0 0.0 1.7 0.00 0.00 0.00 60 1010.4
20260505004602 61 0 0.0 1.7 0.00 0.00 0.00 64 1010.4
20260505004100 62 163 0.0 1.7 0.00 0.00 0.00 59 1010.4
20260505003559 63 162 0.9 1.7 0.00 0.00 0.00 53 1010.3
20260505003059 64 0 0.0 1.7 0.00 0.00 0.00 51 1010.3
20260505002600 65 162 0.0 1.7 0.00 0.00 0.00 51 1010.3
20260505002058 65 162 0.0 1.7 0.00 0.00 0.00 49 1010.4
20260505001559 66 162 0.0 1.7 0.00 0.00 0.00 49 1010.2
20260505001059 67 163 0.0 4.3 0.00 0.00 0.00 48 1010.2
20260505000558 67 163 1.7 5.2 0.00 0.00 0.00 47 1010.2
20260505000116 68 190 0.9 5.2 0.00 0.00 0.00 46 1010.1
20260504235601 68 169 2.6 5.2 0.00 0.00 0.00 44 1010.1
20260504235102 68 182 1.7 6.1 0.00 0.00 0.00 44 1010.0
20260504234559 69 157 2.6 7.8 0.00 0.00 0.00 43 1010.0
20260504234100 69 200 3.5 7.8 0.00 0.00 0.00 43 1010.0
20260504233558 69 184 3.5 9.6 0.00 0.00 0.00 43 1009.9
20260504233108 69 173 2.6 11.3 0.00 0.00 0.00 43 1009.8
20260504232600 70 165 4.3 11.3 0.00 0.00 0.00 42 1009.7
20260504232100 70 190 6.1 11.3 0.00 0.00 0.00 42 1009.7
20260504231609 70 180 4.3 11.3 0.00 0.00 0.00 42 1009.7
20260504231059 70 211 5.2 11.3 0.00 0.00 0.00 41 1009.6
20260504230559 70 169 5.2 11.3 0.00 0.00 0.00 42 1009.6
20260504230100 70 191 6.1 13.0 0.00 0.00 0.00 41 1009.6
20260504225559 70 184 5.2 13.0 0.00 0.00 0.00 42 1009.6
20260504225059 71 213 5.2 10.4 0.00 0.00 0.00 41 1009.6
20260504224609 71 168 4.3 12.2 0.00 0.00 0.00 42 1009.6
20260504224059 71 199 5.2 13.0 0.00 0.00 0.00 41 1009.6
20260504223559 71 188 7.0 13.0 0.00 0.00 0.00 41 1009.6
20260504223134 71 160 6.1 12.2 0.00 0.00 0.00 42 1009.6
20260504222559 71 134 5.2 12.2 0.00 0.00 0.00 41 1009.6
20260504222100 71 205 5.2 12.2 0.00 0.00 0.00 41 1009.7
20260504221558 71 167 5.2 14.8 0.00 0.00 0.00 41 1009.7
20260504221103 71 219 6.1 13.9 0.00 0.00 0.00 41 1009.8
20260504220600 71 180 6.1 13.0 0.00 0.00 0.00 40 1009.8
20260504220059 72 215 7.0 13.0 0.00 0.00 0.00 41 1009.7
20260504215559 72 184 4.3 13.0 0.00 0.00 0.00 40 1009.8
20260504215058 72 180 7.8 13.0 0.00 0.00 0.00 39 1009.8
20260504214558 73 202 5.2 10.4 0.00 0.00 0.00 39 1009.9
20260504214059 73 197 4.3 9.6 0.00 0.00 0.00 39 1009.8
20260504213559 73 209 3.5 9.6 0.00 0.00 0.00 39 1009.9
20260504213106 72 286 4.3 14.8 0.00 0.00 0.00 38 1010.0
20260504212559 72 210 5.2 14.8 0.00 0.00 0.00 38 1010.0
20260504212058 72 275 4.3 10.4 0.00 0.00 0.00 38 1010.0
20260504211601 72 193 3.5 11.3 0.00 0.00 0.00 39 1009.9
20260504211059 72 179 7.0 13.0 0.00 0.00 0.00 38 1009.8
20260504210601 72 156 8.7 13.0 0.00 0.00 0.00 38 1009.9
20260504210109 72 150 6.1 12.2 0.00 0.00 0.00 37 1009.9
20260504205603 73 227 5.2 11.3 0.00 0.00 0.00 37 1010.0
20260504205059 73 309 1.7 16.5 0.00 0.00 0.00 38 1010.1
20260504204601 73 257 5.2 16.5 0.00 0.00 0.00 38 1010.1
20260504204059 72 291 3.5 13.9 0.00 0.00 0.00 38 1010.2
20260504203559 72 221 5.2 13.9 0.00 0.00 0.00 39 1010.2
20260504203112 71 249 2.6 14.8 0.00 0.00 0.00 38 1010.4
20260504202559 72 227 4.3 14.8 0.00 0.00 0.00 38 1010.2
20260504202100 72 207 7.0 14.8 0.00 0.00 0.00 37 1010.4
20260504201609 73 216 3.5 14.8 0.00 0.00 0.00 37 1010.3
20260504201100 73 253 6.1 20.0 0.00 0.00 0.00 37 1010.2